Location: Buckland
(65.9785°N, 161.1281°W)
Time: 07:38:14
(UTC+00:00)

Transit 2A Rocket - Pass Details

Date: 02 December 2020
Orbit: 592 x 910 km, 66.7° (Epoch: 21 January)

Event Time Altitude Azimuth Distance (km) Brightness Sun altitude
Exits shadow 18:14:46 13° 290° (WNW) 2,083 6.6 -10.6°
Maximum altitude 18:19:23 69° 209° (SSW) 776 5.1 -10.2°
Drops below altitude 10° 18:24:09 10° 127° (SE) 2,114 8.9 -9.8°
Sets 18:26:22 0° 125° (SE) 2,983 10.5 -9.6°
